Regional Weather Roundup
Issued by NWS

Home | Current Version | Previous Version | Text Only | Print | Product List | Glossary Off
Versions: 1 2 3 4 5 6 7 8 9 10 11 12 13 14 15 16 17 18 19 20 21 22 23 24 25 26 27 28 29 30 31 32 33 34 35 36 37 38 39 40 41 42 43 44 45 46 47 48 49 50

000
ASUS43 KMPX 061701
RWRMN
WEATHER ROUNDUP FOR MINNESOTA
NATIONAL WEATHER SERVICE TWIN CITIES/CHANHASSEN MN
1100 AM CST FRI MAR 06 2015


NOTE: "FAIR" INDICATES FEW OR NO CLOUDS BELOW 12,000 FEET WITH NO
SIGNIFICANT WEATHER AND/OR OBSTRUCTIONS TO VISIBILITY. N/A MEANS
CURRENT SKY AND/OR WEATHER CONDITIONS ARE NOT AVAILABLE.

MNZ060>063-068>070-061800-
   Twin Cities Metro

CITY           SKY/WX    TMP DP  RH WIND       PRES   REMARKS
TWIN CITIES    SUNNY     29  12  49 SW8       30.06F WCI  21
ST PAUL        SUNNY     29  12  49 SW8       30.07F WCI  21
CRYSTAL        SUNNY     29  14  53 W9        30.05S WCI  20
BLAINE         SUNNY     28  12  50 W7        30.04F WCI  21
EDEN PRAIRIE   SUNNY     31  15  52 W9        30.05S WCI  23
SOUTH ST PAUL  SUNNY     32  14  47 W10       30.06F WCI  23
LAKE ELMO      FAIR      27  14  59 S6        30.06F WCI  20
$$
MNZ001>005-007-008-013>017-022>024-027-028-061800-
   Northwest Minnesota

CITY           SKY/WX    TMP DP  RH WIND       PRES   REMARKS
BEMIDJI        SUNNY     24  10  55 W16       30.01S WCI  11
HALLOCK        SUNNY     25  16  68 W7        30.04S WCI  17
ROSEAU         SUNNY     21  12  68 W8        30.01S WCI  12
WARROAD        SUNNY     21  10  63 W7        30.00R WCI  13
THIEF RVR FALL SUNNY     21  14  73 NW8       30.05S WCI  12
CROOKSTON      SUNNY     27  16  63 NW7       30.09R WCI  19
FOSSTON        SUNNY     25  10  54 W9        30.06R WCI  15
DETROIT LAKES  SUNNY     25  16  68 NW9       30.07S WCI  15
MOORHEAD       SUNNY     28  16  59 NW9       30.10S WCI  20
PARK RAPIDS    SUNNY     26  11  52 NW13      30.02R WCI  15
MAHNOMEN       FAIR      22  13  70 W8        30.06S WCI  12
$$
MNZ006-009>011-018-025>026-061800-
   North Central Minnesota

CITY           SKY/WX    TMP DP  RH WIND       PRES   REMARKS
BAUDETTE       SUNNY     22   9  57 W9        29.97R WCI  12
FLAG ISLAND    SUNNY     23  10  58 NW12G18   29.95F WCI  12
INTL FALLS     SUNNY     22   7  52 W14G21    29.95R WCI   9
WASKISH        SUNNY     21  12  68 SW8       30.01R WCI  12
BIG FORK       SUNNY     27   9  46 NW9G20    29.97R WCI  17
LONGVILLE      SUNNY     25   9  50 NW8G18    30.02R WCI  16
GRAND RAPIDS   SUNNY     25  10  54 NW17G24   29.97R WCI  11
CRANE LAKE     SUNNY     19   5  53 W9        29.96R WCI   9
ORR            SUNNY     21   5  49 NW12      29.92R WCI   9
COOK           SUNNY     23   9  54 W12G18    29.94R WCI  12
WALKER         FAIR      25   8  49 NW8       30.01R WCI  16
$$
MNZ012-019>021-037-061800-
   Northeast Minnesota

CITY           SKY/WX    TMP DP  RH WIND       PRES   REMARKS
DULUTH         MOSUNNY   23  10  57 W17       29.93S WCI   9
ELY            SUNNY     23   7  50 NW8G16    29.89S WCI  14
HIBBING        SUNNY     23   9  55 NW18      29.94S WCI   9
EVELETH        SUNNY     23   9  54 W12       29.94R WCI  12
DULUTH HARBOR  SUNNY     23  10  58 SW12      29.99F WCI  12
TWO HARBORS    SUNNY     28  12  50 W10G18    29.91S WCI  19
SILVER BAY     SUNNY     30  10  43 W6        29.89S WCI  24
GRAND MARAIS     N/A     26  19  74 SW21      29.90F WCI  12
G MARAIS ARPRT SUNNY     23   5  46 W12G18    29.82S WCI  12
$$
MNZ029>031-032-039>041-046>048-054>057-064-061800-
   West Central Minnesota

CITY           SKY/WX    TMP DP  RH WIND       PRES   REMARKS
FERGUS FALLS   SUNNY     23  12  63 N9        30.12S WCI  13
WHEATON        SUNNY     25  14  63 NW9       30.14R WCI  15
MORRIS         SUNNY     27  18  69 NW12      30.09R WCI  16
ALEXANDRIA     SUNNY     24  13  62 NW8       30.05R WCI  15
ELBOW LAKE     FAIR      22  15  74 NW8       30.08R WCI  13
WADENA         SUNNY     25  10  54 NW10      30.04S WCI  15
GLENWOOD       SUNNY     25  16  68 NW15      30.06S WCI  12
APPLETON       SUNNY     30  18  59 NW16      30.12R WCI  19
BENSON         SUNNY     28  18  64 N14       30.10R WCI  17
ORTONVILLE     SUNNY     28  14  54 NW12G17   30.12R WCI  18
MADISON        SUNNY     30  18  59 NW16      30.12R WCI  19
WILLMAR        FAIR      28  18  64 NW15      30.08S WCI  17
$$
MNZ033>034-036-042>043-049>051-058-059-061800-
   Central Minnesota

CITY           SKY/WX    TMP DP  RH WIND       PRES   REMARKS
ST CLOUD       SUNNY     26  13  57 NW8       30.04R WCI  18
SAUK CENTRE    FAIR      26  14  61 NW17      30.05R WCI  13
PAYNESVILLE    SUNNY     26  15  63 W13G20    30.06R WCI  15
AITKIN         SUNNY     28  10  47 NW6       29.99S WCI  22
PINE RIVER     SUNNY     27  12  54 NW8       30.05R WCI  18
BRAINERD       SUNNY     26  10  50 N13       30.02R WCI  15
STAPLES        SUNNY     25  10  54 NW8       30.04R WCI  16
LONG PRAIRIE   FAIR      27  14  59 W12       30.05R WCI  16
LITTLE FALLS   SUNNY     27  12  54 W8        30.04S WCI  18
LITCHFIELD     SUNNY     30  18  59 W8        30.05S WCI  23
BUFFALO        SUNNY     28  15  57 W7        30.06S WCI  21
MAPLE LAKE     SUNNY     30  18  60 W6        30.05S WCI  24
$$
MNZ037-044-045-052-053-061800-
   East Central Minnesota

CITY           SKY/WX    TMP DP  RH WIND       PRES   REMARKS
PRINCETON      SUNNY     28  14  54 W8        30.04R WCI  20
MORA           SUNNY     27  12  54 SW6       30.03S WCI  20
CAMBRIDGE      SUNNY     27  12  54 W6        30.02S WCI  20
RUSH CITY      SUNNY     25  10  53 SW5       30.03F WCI  19
MOOSE LAKE     SUNNY     28  10  47 W8G17     29.98R WCI  20
HINCKLEY       FAIR      25  12  58 W6        30.01S WCI  18
CLOQUET        SUNNY     25   9  50 W9        29.95S WCI  15
MCGREGOR       SUNNY     27  12  54 NW10      30.00R WCI  17
$$
MNZ071>073-080-081-089-090-097-098-061800-
   Southwest Minnesota

CITY           SKY/WX    TMP DP  RH WIND       PRES   REMARKS
MONTEVIDEO     SUNNY     30  19  64 N14       30.11S WCI  20
GRANITE FALLS  SUNNY     31  20  62 W14       30.11S WCI  21
CANBY          SUNNY     32  19  58 NW13      30.12S WCI  22
MARSHALL       SUNNY     34  18  51 NW17      30.11S WCI  23
REDWOOD FALLS  SUNNY     33  18  53 NW15      30.08R WCI  23
OLIVIA         SUNNY     32  23  69 NW14      30.07R WCI  22
PIPESTONE      SUNNY     32  19  59 NW9       30.07S WCI  24
WINDOM         SUNNY     39  23  52 W14       30.06F
WORTHINGTON    SUNNY     36  21  55 W13       30.10S
JACKSON        SUNNY     36  21  55 W7        30.08S
TRACY          SUNNY     36  22  57 NW15      30.09R
SLAYTON        SUNNY     35  19  52 CALM      30.08R
$$
MNZ065>067-074>077-082>085-091>093-061800-
   South Central Minnesota

CITY           SKY/WX    TMP DP  RH WIND       PRES   REMARKS
MANKATO        SUNNY     32  18  55 W9        30.07F WCI  24
NEW ULM        SUNNY     34  18  51 W13       30.07S WCI  25
ST JAMES       SUNNY     41  21  45 W12G17    30.09R
FAIRMONT       SUNNY     37  21  52 W13       30.07S
GLENCOE        SUNNY     32  22  66 W10G16    30.05S WCI  24
FARIBAULT      SUNNY     28  18  64 S8        30.06F WCI  20
OWATONNA       SUNNY     30  18  59 SW9       30.07F WCI  22
ALBERT LEA     SUNNY     28  18  64 SW8       30.08F WCI  20
$$
MNZ078>079-086>088-094>096-061800-
   Southeast Minnesota

CITY           SKY/WX    TMP DP  RH WIND       PRES   REMARKS
ROCHESTER      SUNNY     22  14  71 SW16      30.08F WCI   8
RED WING       FAIR      27  10  50 S8        30.08F WCI  18
STANTON        SUNNY     29  17  59 SW9       30.05F WCI  21
DODGE CENTER   SUNNY     23  16  74 SW14      30.06F WCI  11
WINONA         PTSUNNY   28  14  54 SW12      30.13F WCI  18
AUSTIN         SUNNY     21  14  73 SW12      30.09F WCI   9
PRESTON        SUNNY     21  12  67 SW12G18   30.11S WCI   9
$$
ABBREVIATIONS USED IN REMARKS
   TC - TEMPERATURES IN CELSIUS
  WCI - WIND CHILL INDEX
   HX - HEAT INDEX
  VSB - VISIBILITY
$$



USA.gov is the U.S. government's official web portal to all federal, state and local government web resources and services.